1498791600.15,32516,15.69,73178.3,3.21,-2.51,-3.95,0,*77
1498791601.36,32517,15.69,73180.5,3.21,-2.51,-4.45,0,*7C
1498791602.6,32518,15.69,73184.3,3.25,-2.47,-5.19,0,*78
1498791603.81,32519,15.75,73188.3,3.21,-2.59,-6.05,0,*7C
1498791605.0,32520,15.75,73188.5,3.21,-2.99,-7.23,0,*7F
1498791606.18,32521,15.69,73190.3,3.21,-3.39,-8.55,0,*7B
1498791607.37,32522,15.69,73190.5,3.21,-4.05,-9.93,0,*7B
1498791608.59,32523,15.75,73192.8,3.21,-4.73,-11.41,0,*4D
1498791609.81,32524,15.69,73190.3,3.21,-5.85,-13.51,0,*41
1498791611.03,32525,15.69,73190.0,3.25,-6.85,-14.93,0,*4E
1498791612.27,32526,15.75,73194.3,3.19,-7.87,-16.31,0,*4B
1498791613.52,32527,15.69,73188.3,3.19,-8.89,-17.45,0,*49
1498791614.74,32528,15.69,73190.3,3.19,-10.15,-18.65,0,*77
1498791615.99,32529,15.69,73184.5,3.19,-11.51,-19.75,0,*77
1498791617.26,32530,15.69,73182.0,3.19,-12.79,-20.79,0,*70
1498791618.51,32531,15.69,73178.3,3.17,-13.79,-21.83,0,*7A
1498791619.73,32532,15.69,73178.3,3.17,-14.55,-22.03,0,*7B
1498791620.94,32533,15.69,73176.8,3.17,-15.15,-22.63,0,*79
1498791622.17,32534,15.69,73174.0,3.17,-15.89,-23.09,0,*76
1498791623.39,32535,15.69,73174.8,3.19,-16.59,-23.09,0,*77
1498791624.59,32536,15.69,73176.0,3.17,-16.79,-22.87,0,*7F
1498791625.82,32537,15.69,73178.0,3.17,-17.03,-22.93,0,*77
1498791627.07,32538,15.69,73182.0,3.15,-17.25,-22.97,0,*7A
1498791628.31,32539,15.69,73168.5,3.15,-17.55,-22.83,0,*79
1498791629.57,32540,15.69,73164.3,3.15,-17.83,-22.47,0,*74
1498791630.82,32541,15.69,73170.0,3.13,-17.97,-21.83,0,*7D
1498791632.08,32542,15.69,73174.0,3.15,-18.01,-20.89,0,*73
1498791633.28,32543,15.75,73176.0,3.13,-17.83,-20.43,0,*77
1498791634.51,32544,15.69,73182.0,3.17,-17.69,-19.85,0,*70
1498791635.69,32545,15.69,73178.8,3.13,-17.31,-19.03,0,*76
1498791636.9,32546,15.69,73182.3,3.17,-16.75,-18.11,0,*72
1498791638.15,32547,15.69,73176.8,3.13,-16.17,-17.41,0,*79
1498791639.38,32548,15.69,73180.0,3.11,-15.53,-16.59,0,*7F
1498791640.6,32549,15.69,73184.8,3.11,-14.65,-15.95,0,*79
1498791641.83,32550,15.69,73182.5,3.13,-13.73,-15.39,0,*75
1498791643.08,32551,15.69,73184.0,3.13,-13.01,-15.01,0,*7A
1498791644.36,32552,15.69,73180.3,3.11,-12.53,-14.79,0,*73
1498791645.61,32553,15.69,73176.0,3.11,-12.11,-14.65,0,*79
1498791646.86,32554,15.69,73172.8,3.13,-11.77,-14.51,0,*78
1498791648.11,32555,15.69,73176.5,3.09,-11.51,-14.83,0,*79
1498791649.31,32556,15.69,73174.3,3.09,-11.15,-15.07,0,*77
1498791650.56,32557,15.69,73174.0,3.09,-10.79,-15.39,0,*70
1498791651.75,32558,15.69,73172.3,3.09,-10.53,-15.67,0,*7C
1498791652.97,32559,15.69,73174.3,3.09,-10.41,-15.99,0,*7F
1498791654.22,32560,15.69,73176.5,3.09,-10.41,-16.27,0,*73
1498791655.44,32561,15.69,73174.8,3.09,-10.41,-16.41,0,*72
1498791656.69,32562,15.69,73178.0,3.09,-10.41,-16.31,0,*76
1498791657.93,32563,15.69,73176.5,3.07,-10.45,-16.27,0,*7A
1498791659.16,32564,15.69,73176.3,3.09,-10.31,-15.81,0,*7F
1498791660.36,32565,15.69,73178.8,3.09,-10.19,-15.07,0,*7A
1498791661.55,32566,15.69,73174.5,3.09,-10.01,-14.33,0,*76
1498791662.8,32567,15.69,73172.0,3.07,-9.79,-13.37,0,*4D
1498791664.02,32568,15.69,73172.8,3.07,-9.27,-12.43,0,*4B
1498791665.27,32569,15.75,73176.5,3.07,-8.71,-11.73,0,*48
1498791666.47,32570,15.69,73174.3,3.05,-8.17,-11.01,0,*47
1498791667.72,32571,15.75,73178.0,3.07,-7.73,-10.49,0,*44
1498791668.94,32572,15.69,73172.0,3.07,-7.23,-10.05,0,*4A
1498791670.22,32573,15.69,73178.8,3.07,-6.97,-9.53,0,*7E
1498791671.4,32574,15.69,73174.3,3.09,-6.77,-9.23,0,*7E
1498791672.59,32575,15.75,73178.5,3.09,-6.51,-9.19,0,*72
1498791673.78,32576,15.69,73178.3,3.09,-6.51,-9.23,0,*78
1498791674.96,32577,15.69,73176.5,3.09,-6.35,-9.31,0,*78
1498791676.17,32578,15.69,73178.3,3.09,-6.23,-9.71,0,*74
1498791677.37,32579,15.75,73184.3,3.09,-6.47,-10.31,0,*4B
1498791678.55,32580,15.69,73182.5,3.09,-6.69,-11.15,0,*46
1498791679.79,32581,15.69,73178.8,3.09,-7.05,-11.85,0,*45
1498791681.01,32582,15.69,73180.0,3.09,-7.49,-12.71,0,*46
1498791682.22,32583,15.69,73182.5,3.09,-7.99,-13.55,0,*4D
1498791683.47,32584,15.69,73192.5,3.11,-8.81,-14.65,0,*41
1498791684.68,32585,15.69,73188.8,3.09,-9.61,-15.71,0,*42
1498791685.91,32586,15.69,73184.8,3.07,-10.57,-16.79,0,*79
1498791687.14,32587,15.69,73186.8,3.07,-11.45,-17.69,0,*7A
1498791688.39,32588,15.69,73184.0,3.07,-12.57,-18.83,0,*7E
1498791689.61,32589,15.69,73184.3,3.07,-13.55,-19.51,0,*72
1498791690.87,32590,15.69,73184.5,3.07,-14.37,-20.19,0,*7F
1498791692.12,32591,15.69,73180.5,3.07,-15.43,-20.69,0,*7B
1498791693.4,32592,15.75,73186.8,3.07,-16.13,-20.99,0,*71
1498791694.66,32593,15.69,73176.8,3.07,-17.03,-21.17,0,*77
1498791695.94,32594,15.69,73178.5,3.07,-17.41,-21.33,0,*70
1498791697.16,32595,15.69,73178.0,3.07,-18.11,-21.39,0,*71
1498791698.4,32596,15.69,73176.3,3.07,-18.69,-21.47,0,*74
1498791699.65,32597,15.69,73172.3,3.07,-19.13,-21.33,0,*7A
1498791700.91,32598,15.69,73174.0,3.05,-19.61,-21.03,0,*71
1498791702.12,32599,15.69,73172.8,3.05,-19.75,-20.39,0,*7D
1498791703.34,32600,15.69,73174.0,3.07,-20.05,-19.91,0,*79
1498791704.57,32601,15.69,73170.5,3.07,-20.25,-19.13,0,*70
1498791705.8,32602,15.69,73176.3,3.11,-20.35,-18.17,0,*70
1498791707.05,32603,15.69,73168.3,3.07,-20.29,-17.07,0,*75
1498791708.26,32604,15.69,73168.5,3.05,-19.91,-15.63,0,*79
1498791709.48,32605,15.69,73172.5,3.09,-19.41,-14.33,0,*7D
1498791710.7,32606,15.69,73168.0,3.07,-18.73,-12.97,0,*78
1498791711.96,32607,15.69,73170.5,3.07,-18.07,-11.67,0,*76
1498791713.19,32608,15.69,73172.3,3.07,-17.49,-10.23,0,*7D
1498791714.44,32609,15.69,73174.0,3.07,-17.03,-8.85,0,*47
1498791715.68,32610,15.69,73174.3,3.07,-16.03,-7.35,0,*4A
1498791716.95,32611,15.69,73170.0,3.07,-15.43,-6.27,0,*4E
1498791718.2,32612,15.69,73172.0,3.09,-14.55,-5.11,0,*43
1498791719.42,32613,15.69,73174.0,3.09,-13.83,-4.41,0,*4A
1498791720.66,32614,15.69,73170.5,3.11,-12.93,-3.55,0,*46
1498791721.87,32615,15.69,73172.5,3.09,-12.11,-2.79,0,*4B
1498791723.09,32616,15.69,73172.8,3.11,-11.41,-2.35,0,*4F
1498791724.33,32617,15.69,73172.3,3.11,-11.15,-1.91,0,*42
1498791725.55,32618,15.69,73172.0,3.09,-10.79,-1.51,0,*43
1498791726.79,32619,15.69,73184.0,3.11,-10.41,-1.29,0,*4F
1498791728.03,32620,15.69,73176.0,3.11,-10.01,-1.05,0,*4F
1498791729.23,32621,15.69,73172.0,3.11,-9.93,-1.29,0,*73
1498791730.44,32622,15.69,73176.3,3.11,-9.93,-1.51,0,*7F
1498791731.66,32623,15.75,73182.5,3.11,-10.01,-1.63,0,*4C
1498791732.9,32624,15.69,73152.0,3.11,-10.15,-1.87,0,*44
1498791734.12,32625,15.69,73138.5,3.11,-10.45,-2.23,0,*4D
1498791735.36,32626,15.69,73142.8,3.11,-10.85,-2.55,0,*43
1498791736.61,32627,15.69,73136.8,3.11,-10.97,-2.67,0,*40
1498791737.86,32628,15.69,73152.3,3.11,-11.23,-2.75,0,*42
1498791739.1,32629,15.69,73162.8,3.13,-11.51,-2.75,0,*44
1498791740.32,32630,15.69,73162.3,3.13,-11.67,-2.87,0,*44
1498791741.59,32631,15.69,73168.5,3.15,-11.77,-2.75,0,*4F
1498791742.82,32632,15.69,73168.3,3.13,-11.93,-2.95,0,*4E
1498791744.04,32633,15.69,73168.5,3.15,-12.29,-3.27,0,*43
1498791745.28,32634,15.69,73164.5,3.15,-12.47,-3.59,0,*45
1498791746.49,32635,15.69,73166.3,3.15,-12.47,-3.87,0,*47
1498791747.68,32636,15.69,73166.5,3.13,-12.47,-4.13,0,*48
1498791748.91,32637,15.69,73164.5,3.13,-12.57,-4.61,0,*4D
1498791750.15,32638,15.69,73170.0,3.13,-12.61,-4.89,0,*41
1498791751.4,32639,15.69,73164.5,3.13,-12.65,-5.31,0,*46
1498791752.64,32640,15.69,73166.0,3.13,-12.65,-5.81,0,*43
1498791753.88,32641,15.69,73166.8,3.13,-12.57,-6.23,0,*48
1498791755.1,32642,15.69,73168.0,3.13,-12.57,-6.89,0,*4B
1498791756.35,32643,15.69,73168.3,3.13,-12.75,-7.43,0,*4D
1498791757.54,32644,15.75,73174.5,3.13,-12.93,-8.17,0,*4C
1498791758.76,32645,15.69,73174.0,3.15,-13.19,-8.97,0,*40
1498791759.95,32646,15.69,73176.3,3.13,-13.47,-9.71,0,*47
1498791761.2,32647,15.69,73176.8,3.15,-13.65,-10.63,0,*7B
1498791762.42,32648,15.69,73178.0,3.15,-13.93,-11.45,0,*78
1498791763.62,32649,15.75,73180.3,3.13,-14.29,-12.29,0,*70
1498791764.88,32650,15.69,73176.8,3.13,-14.47,-13.01,0,*7B
1498791766.09,32651,15.69,73178.5,3.15,-14.61,-13.73,0,*7D
1498791767.31,32652,15.69,73176.3,3.13,-14.75,-14.33,0,*7E
1498791768.56,32653,15.69,73180.8,3.15,-14.89,-14.93,0,*70
1498791769.78,32654,15.69,73180.5,3.13,-15.07,-15.39,0,*77
1498791771.01,32655,15.69,73184.3,3.13,-15.15,-15.81,0,*76
1498791772.29,32656,15.69,73184.8,3.15,-15.35,-16.09,0,*72
1498791773.51,32657,15.69,73184.5,3.13,-15.53,-16.51,0,*78
1498791774.75,32658,15.75,73188.8,3.15,-15.49,-16.51,0,*7A
1498791775.98,32659,15.69,73190.5,3.13,-15.75,-17.07,0,*70
1498791777.24,32660,15.69,73186.5,3.13,-16.17,-17.45,0,*7B
1498791778.49,32661,15.69,73184.0,3.13,-16.23,-17.59,0,*70
1498791779.74,32662,15.69,73190.0,3.13,-16.17,-17.45,0,*79
1498791780.94,32663,15.69,73186.5,3.13,-15.75,-16.83,0,*74
1498791782.14,32664,15.69,73186.5,3.13,-15.63,-16.79,0,*71
1498791783.34,32665,15.69,73186.8,3.13,-15.67,-16.41,0,*7F
1498791784.57,32666,15.69,73186.3,3.13,-15.49,-15.81,0,*7F
1498791785.78,32667,15.69,73182.5,3.13,-15.29,-15.29,0,*7A
1498791787.0,32668,15.69,73186.5,3.13,-15.01,-14.61,0,*72
1498791788.21,32669,15.69,73182.3,3.13,-14.65,-13.87,0,*7F
1498791789.44,32670,15.69,73182.0,3.13,-14.37,-12.75,0,*7C
1498791790.66,32671,15.69,73182.5,3.13,-13.93,-11.81,0,*7C
1498791791.88,32672,15.69,73186.0,3.13,-13.47,-10.79,0,*70
1498791793.1,32673,15.69,73178.8,3.13,-12.89,-9.83,0,*4F
1498791794.35,32674,15.69,73178.0,3.13,-11.67,-8.51,0,*45
1498791795.56,32675,15.69,73174.0,3.13,-10.75,-7.53,0,*4B
1498791796.77,32676,15.69,73168.5,3.15,-9.79,-6.59,0,*71
1498791798.0,32677,15.69,73166.3,3.13,-8.89,-5.81,0,*7E
1498791799.26,32678,15.69,73166.5,3.15,-8.07,-4.77,0,*79
1498791800.46,32679,15.69,73166.8,3.13,-7.39,-4.05,0,*79
1498791801.65,32680,15.69,73166.5,3.13,-6.73,-3.27,0,*77
1498791802.9,32681,15.69,73166.8,3.13,-5.93,-2.47,0,*7C
1498791804.12,32682,15.69,73166.0,3.13,-5.15,-1.75,0,*73
1498791805.32,32683,15.69,73170.0,3.13,-4.41,-1.13,0,*72
1498791806.56,32684,15.69,73172.3,3.15,-3.63,-0.49,0,*4A
1498791807.75,32685,15.69,73172.5,3.13,-3.07,-0.11,0,*42
1498791808.97,32686,15.69,73172.3,3.13,-2.59,0.25,0,*61
1498791810.22,32687,15.69,73174.3,3.15,-1.95,0.59,0,*6E
1498791811.45,32688,15.69,73172.8,3.13,-1.47,0.83,0,*6F
1498791812.66,32689,15.69,73178.3,3.13,-1.25,0.91,0,*69
1498791813.86,32690,15.69,73174.3,3.13,-1.09,1.01,0,*57
1498791815.09,32691,15.69,73170.5,3.13,-1.01,1.13,0,*5D
1498791816.34,32692,15.69,73170.5,3.15,-0.89,1.25,0,*6C
1498791817.59,32693,15.69,73170.0,3.15,-0.97,1.21,0,*66
1498791818.84,32694,15.69,73170.0,3.15,-1.13,1.13,0,*5D
1498791820.1,32695,15.69,73168.8,3.15,-1.09,1.21,0,*56
1498791821.33,32696,15.69,73166.3,3.15,-1.21,1.25,0,*5B
1498791822.56,32697,15.69,73170.3,3.15,-1.33,1.33,0,*5E
1498791823.77,32698,15.69,73168.0,3.17,-1.71,1.29,0,*5E
1498791824.97,32699,15.69,73166.0,3.17,-2.15,1.37,0,*51
1498791826.2,32700,15.69,73170.0,3.17,-2.59,1.25,0,*5B
1498791827.41,32701,15.69,73170.3,3.17,-2.95,1.25,0,*5A
1498791828.62,32702,15.69,73164.0,3.17,-3.35,1.25,0,*52
1498791829.83,32703,15.75,73168.8,3.17,-3.83,1.13,0,*5B
1498791831.04,32704,15.69,73170.5,3.17,-4.13,1.17,0,*56
1498791832.24,32705,15.69,73168.8,3.17,-4.45,1.17,0,*54
1498791833.48,32706,15.69,73170.8,3.19,-4.69,1.29,0,*5A
1498791834.73,32707,15.69,73164.8,3.19,-4.73,1.29,0,*50
1498791835.95,32708,15.69,73166.3,3.19,-4.99,1.33,0,*50
1498791837.21,32709,15.69,73164.0,3.19,-5.23,1.33,0,*51
1498791838.44,32710,15.69,73166.3,3.19,-5.35,1.33,0,*5E
1498791839.64,32711,15.69,73162.0,3.19,-5.35,1.41,0,*5A
1498791840.85,32712,15.69,73160.5,3.17,-5.51,1.37,0,*54
1498791842.05,32713,15.69,73166.3,3.19,-5.51,1.41,0,*5A
1498791843.27,32714,15.69,73162.8,3.19,-5.61,1.41,0,*5E
1498791844.5,32715,15.69,73166.0,3.19,-5.51,1.43,0,*5E
1498791845.7,32716,15.75,73168.3,3.17,-5.39,1.47,0,*59
1498791846.95,32717,15.69,73162.8,3.19,-5.19,1.55,0,*57
1498791848.2,32718,15.75,73166.5,3.19,-4.85,1.63,0,*59
1498791849.42,32719,15.69,73156.5,3.21,-4.69,1.67,0,*55
1498791850.62,32720,15.69,73156.5,3.21,-4.53,1.71,0,*51
1498791851.82,32721,15.69,73160.3,3.21,-4.53,1.67,0,*57
1498791853.04,32722,15.69,73162.5,3.19,-4.41,1.67,0,*5C
1498791854.27,32723,15.69,73160.8,3.19,-4.29,1.67,0,*53
1498791855.5,32724,15.69,73162.3,3.19,-3.91,1.71,0,*57
1498791856.71,32725,15.69,73162.5,3.21,-3.43,1.79,0,*5A
1498791857.9,32726,15.69,73170.5,3.21,-2.79,1.79,0,*51
1498791859.08,32727,15.69,73170.3,3.21,-2.31,1.83,0,*59
1498791860.29,32728,15.69,73170.3,3.21,-1.91,1.83,0,*5F
1498791861.5,32729,15.69,73168.0,3.21,-1.43,1.83,0,*51
1498791862.72,32730,15.69,73166.5,3.21,-1.13,1.89,0,*56
1498791863.92,32731,15.69,73164.8,3.21,-0.81,1.89,0,*6D
1498791865.11,32732,15.69,73170.3,3.25,-0.45,1.97,0,*6D
1498791866.33,32733,15.69,73170.3,3.25,-0.27,1.97,0,*68
1498791867.53,32734,15.69,73168.5,3.25,-0.11,1.97,0,*6A
1498791868.74,32735,15.69,73172.5,3.25,0.13,2.05,0,*4C
1498791869.95,32736,15.69,73172.0,3.25,0.29,2.05,0,*46
1498791871.17,32737,15.69,73172.0,3.25,0.47,2.05,0,*4F
1498791872.38,32738,15.69,73172.3,3.25,0.63,2.05,0,*46
1498791873.6,32739,15.75,73166.0,3.25,0.75,2.09,0,*4C
1498791874.84,32740,15.69,73152.0,3.27,0.71,2.09,0,*44
1498791876.08,32741,15.69,73168.3,3.27,0.59,2.13,0,*44
1498791877.31,32742,15.69,73172.5,3.29,0.55,2.13,0,*45
1498791878.55,32743,15.69,73162.3,3.27,0.59,1.97,0,*49
1498791879.79,32744,15.69,73160.0,3.27,0.63,2.05,0,*4F
1498791881.02,32745,15.75,73164.8,3.27,0.75,1.97,0,*41
1498791882.26,32746,15.69,73164.0,3.27,0.83,2.05,0,*43
1498791883.49,32747,15.69,73156.5,3.29,0.91,1.97,0,*47
1498791884.7,32748,15.69,73166.8,3.29,1.01,2.09,0,*74
1498791885.92,32749,15.69,73172.3,3.27,1.01,1.97,0,*7F
1498791887.12,32750,15.69,73178.5,3.29,1.05,2.01,0,*71
1498791888.33,32751,15.69,73176.0,3.29,1.05,2.01,0,*70
1498791889.55,32752,15.69,73176.8,3.27,1.01,2.05,0,*7D
1498791890.79,32753,15.69,73180.8,3.29,1.09,2.01,0,*7E
1498791892.03,32754,15.69,73176.0,3.29,1.13,2.01,0,*72
1498791893.25,32755,15.69,73168.3,3.31,1.01,2.01,0,*79
1498791894.47,32756,15.69,73174.5,3.31,0.97,2.01,0,*44
1498791895.7,32757,15.69,73172.0,3.29,0.91,2.09,0,*42
1498791896.92,32758,15.69,73172.8,3.29,0.67,2.09,0,*44
1498791898.15,32759,15.69,73174.5,3.29,0.51,2.13,0,*4B
1498791899.38,32760,15.69,73172.8,3.31,0.33,2.09,0,*47
1498791900.6,32761,15.69,73170.3,3.31,0.05,2.09,0,*73
1498791901.85,32762,15.69,73166.8,3.31,-0.23,2.01,0,*61
1498791903.07,32763,15.69,73168.3,3.31,-0.57,1.89,0,*60
1498791904.29,32764,15.69,73164.8,3.31,-0.81,1.97,0,*63
1498791905.54,32765,15.69,73164.3,3.33,-0.93,1.93,0,*67
1498791906.79,32766,15.69,73160.5,3.31,-0.97,1.97,0,*66
1498791908.04,32767,15.69,73162.0,3.31,-0.85,1.97,0,*64
1498791909.27,32768,15.69,73158.0,3.33,-0.81,2.05,0,*65
1498791910.51,32769,15.69,73162.0,3.33,-0.53,2.05,0,*6B
1498791911.73,32770,15.69,73158.5,3.31,-0.41,2.01,0,*66
1498791912.99,32771,15.69,73156.8,3.33,-0.27,2.05,0,*61
1498791914.21,32772,15.69,73158.0,3.31,-0.07,1.97,0,*5A
1498791915.45,32773,15.69,73158.5,3.33,0.25,2.05,0,*4C
1498791916.68,32774,15.69,73162.0,3.33,0.43,2.13,0,*4C
1498791917.92,32775,15.69,73160.8,3.33,0.67,2.13,0,*4B
1498791919.18,32776,15.69,73164.5,3.33,0.83,2.05,0,*45
1498791920.42,32777,15.69,73164.3,3.33,1.01,2.13,0,*78
1498791921.68,32778,15.69,73164.8,3.33,1.09,2.13,0,*7F
1498791922.95,32779,15.69,73166.5,3.33,1.21,2.13,0,*74
1498791924.19,32780,15.69,73168.8,3.35,1.37,2.17,0,*77
1498791925.47,32781,15.69,73170.0,3.33,1.33,2.17,0,*74
1498791926.69,32782,15.69,73170.8,3.35,1.47,2.21,0,*77
1498791927.93,32783,15.69,73174.5,3.35,1.37,2.17,0,*74
1498791929.17,32784,15.69,73170.3,3.35,1.33,2.09,0,*78
1498791930.42,32785,15.69,73168.8,3.35,1.21,2.09,0,*7A
1498791931.66,32786,15.69,73172.0,3.35,1.21,2.09,0,*79
1498791932.89,32787,15.69,73174.0,3.35,1.25,2.05,0,*70
1498791934.13,32788,15.69,73174.3,3.35,1.21,2.05,0,*7B
1498791935.36,32789,15.69,73174.8,3.35,1.33,1.97,0,*71
1498791936.59,32790,15.69,73176.3,3.35,1.43,1.97,0,*7E
1498791937.81,32791,15.69,73176.3,3.35,1.47,1.97,0,*7B
1498791939.07,32792,15.69,73178.8,3.37,1.47,2.05,0,*72
1498791940.32,32793,15.69,73182.0,3.37,1.59,2.05,0,*7C
1498791941.55,32794,15.69,73180.5,3.35,1.71,2.09,0,*7F
1498791942.78,32795,15.69,73182.5,3.37,1.79,2.17,0,*7B
1498791944.01,32796,15.69,73180.8,3.37,1.83,2.09,0,*72
1498791945.24,32797,15.69,73184.5,3.37,1.83,2.09,0,*73
1498791946.51,32798,15.75,73188.3,3.37,1.85,2.17,0,*75
1498791947.77,32799,15.69,73188.0,3.37,1.85,2.09,0,*7B
1498791949.0,32800,15.69,73184.0,3.35,1.85,1.97,0,*72
1498791950.25,32801,15.75,73188.3,3.37,1.85,1.97,0,*71
1498791951.47,32802,15.69,73190.0,3.37,1.83,1.97,0,*74
1498791952.73,32803,15.69,73190.5,3.37,1.85,1.97,0,*73
1498791953.98,32804,15.69,73188.0,3.37,1.85,1.97,0,*74
1498791955.24,32805,15.69,73188.0,3.37,1.85,1.97,0,*75
1498791956.44,32806,15.69,73188.3,3.39,1.83,2.01,0,*72
1498791957.64,32807,15.69,73190.8,3.39,1.83,1.97,0,*7F
1498791958.86,32808,15.69,73192.8,3.39,1.71,1.97,0,*7D
1498791960.08,32809,15.69,73192.3,3.39,1.59,1.89,0,*79
1498791961.3,32810,15.69,73196.3,3.39,1.51,1.89,0,*79
1498791962.53,32811,15.69,73194.8,3.37,1.43,1.79,0,*7A
1498791963.77,32812,15.69,73196.5,3.37,1.21,1.79,0,*7D
1498791965.03,32813,15.69,73198.3,3.37,1.21,1.67,0,*73
1498791966.22,32814,15.69,73196.3,3.39,0.97,1.59,0,*4B
1498791967.43,32815,15.69,73200.3,3.39,0.63,1.59,0,*41
1498791968.62,32816,15.69,73200.8,3.39,0.25,1.41,0,*49
1498791969.87,32817,15.69,73200.5,3.41,-0.23,1.29,0,*62
1498791971.08,32818,15.69,73200.0,3.39,-0.81,1.25,0,*66
1498791972.29,32819,15.69,73202.8,3.39,-1.33,1.09,0,*51
1498791973.5,32820,15.69,73200.3,3.39,-1.79,0.91,0,*65
1498791974.7,32821,15.69,73202.3,3.39,-2.31,0.67,0,*62
1498791975.93,32822,15.69,73198.8,3.39,-2.71,0.51,0,*60
1498791977.14,32823,15.69,73198.8,3.41,-3.31,0.05,0,*5A
1498791978.33,32824,15.69,73194.8,3.39,-3.95,-0.29,0,*4F
1498791979.51,32825,15.69,73196.5,3.39,-4.65,-0.69,0,*42
1498791980.76,32826,15.69,73200.5,3.41,-5.51,-1.09,0,*7F
1498791981.97,32827,15.69,73202.0,3.39,-6.19,-1.55,0,*77
1498791983.19,32828,15.69,73206.3,3.39,-6.85,-2.03,0,*7D
1498791984.43,32829,15.69,73206.8,3.39,-7.61,-2.47,0,*77
1498791985.63,32830,15.69,73204.0,3.39,-8.41,-2.99,0,*71
1498791986.85,32831,15.69,73206.3,3.39,-9.15,-3.35,0,*77
1498791988.04,32832,15.69,73204.0,3.39,-9.79,-3.75,0,*7A
1498791989.26,32833,15.69,73204.3,3.39,-10.31,-4.01,0,*4B
1498791990.48,32834,15.69,73202.0,3.37,-10.93,-4.49,0,*46
1498791991.73,32835,15.69,73196.5,3.37,-11.07,-4.65,0,*45
1498791992.99,32836,15.69,73192.0,3.37,-11.41,-4.89,0,*46
1498791994.24,32837,15.69,73194.3,3.35,-11.55,-5.07,0,*47
1498791995.52,32838,15.69,73184.8,3.37,-11.81,-5.31,0,*46
1498791996.76,32839,15.69,73186.0,3.37,-11.81,-5.47,0,*46
1498791998.03,32840,15.69,73184.5,3.37,-11.89,-5.69,0,*4C
1498791999.31,32841,15.69,73186.3,3.37,-11.89,-5.81,0,*4B
1498792000.52,32842,15.69,73182.0,3.39,-11.85,-6.05,0,*45
1498792001.74,32843,15.69,73180.5,3.39,-11.73,-6.31,0,*4A
1498792002.99,32844,15.69,73166.0,3.37,-11.63,-6.85,0,*4D
1498792004.21,32845,15.69,73166.3,3.35,-11.81,-7.53,0,*48
1498792005.42,32846,15.69,73168.5,3.35,-11.81,-8.25,0,*45
1498792006.62,32847,15.69,73170.5,3.35,-12.03,-9.01,0,*4A
1498792007.88,32848,15.69,73176.5,3.37,-12.15,-10.09,0,*70
1498792009.15,32849,15.75,73176.8,3.37,-12.65,-11.33,0,*7E
1498792010.42,32850,15.69,73176.3,3.37,-13.01,-12.15,0,*72
1498792011.65,32851,15.69,73176.5,3.35,-13.33,-12.93,0,*7E
1498792012.85,32852,15.69,73180.0,3.35,-13.47,-13.73,0,*71
1498792014.05,32853,15.75,73198.5,3.35,-13.73,-14.37,0,*70
1498792015.28,32854,15.69,73188.0,3.35,-13.87,-15.11,0,*79
1498792016.55,32855,15.69,73192.0,3.33,-14.37,-15.85,0,*7F
1498792017.79,32856,15.69,73186.3,3.31,-14.75,-16.37,0,*72
1498792019.04,32857,15.69,73180.3,3.31,-14.83,-16.75,0,*7C
1498792020.26,32858,15.69,73176.8,3.31,-15.11,-16.97,0,*75
1498792021.52,32859,15.69,73168.3,3.33,-15.39,-17.35,0,*75
1498792022.74,32860,15.69,73176.0,3.31,-15.63,-17.49,0,*79
1498792024.02,32861,15.69,73178.3,3.31,-15.85,-17.41,0,*78
1498792025.29,32862,15.69,73176.0,3.31,-15.89,-17.41,0,*77
1498792026.54,32863,15.69,73168.3,3.31,-16.09,-16.97,0,*77
1498792027.82,32864,15.69,73164.8,3.31,-16.09,-16.31,0,*7C
1498792029.04,32865,15.69,73174.3,3.29,-15.99,-16.23,0,*7D
1498792030.24,32866,15.69,73178.0,3.29,-16.03,-15.99,0,*7C
1498792031.46,32867,15.69,73168.8,3.31,-15.99,-15.29,0,*7F
1498792032.71,32868,15.69,73176.0,3.29,-15.85,-14.75,0,*7C
1498792033.97,32869,15.69,73178.8,3.29,-15.57,-14.01,0,*71
1498792035.19,32870,15.69,73176.5,3.29,-15.43,-13.23,0,*7B
1498792036.44,32871,15.69,73182.5,3.29,-15.01,-12.15,0,*78
1498792037.68,32872,15.69,73174.8,3.27,-14.61,-11.51,0,*71
1498792038.94,32873,15.69,73174.5,3.27,-14.23,-11.07,0,*75
1498792040.19,32874,15.69,73172.3,3.27,-13.87,-10.27,0,*78
1498792041.41,32875,15.69,73168.8,3.29,-13.55,-9.53,0,*43
1498792042.64,32876,15.69,73166.8,3.29,-13.29,-8.85,0,*41
1498792043.84,32877,15.69,73182.0,3.29,-12.97,-8.17,0,*4F
1498792045.08,32878,15.69,73176.5,3.29,-12.61,-7.61,0,*47
1498792046.3,32879,15.69,73176.3,3.29,-12.39,-6.93,0,*47
1498792047.53,32880,15.69,73174.8,3.29,-11.97,-6.35,0,*4A
1498792048.77,32881,15.69,73174.5,3.29,-11.59,-5.77,0,*4C
1498792049.96,32882,15.69,73172.3,3.29,-11.19,-5.35,0,*4D
1498792051.19,32883,15.69,73172.3,3.29,-11.01,-5.11,0,*43
1498792052.45,32884,15.69,73176.3,3.29,-10.63,-4.85,0,*4D
1498792053.65,32885,15.69,73174.5,3.29,-10.35,-4.61,0,*45
1498792054.86,32886,15.69,73172.5,3.31,-10.23,-4.45,0,*4E
1498792056.08,32887,15.69,73174.5,3.31,-10.23,-4.25,0,*49
1498792057.3,32888,15.69,73172.3,3.31,-10.31,-4.25,0,*45
1498792058.52,32889,15.69,73176.3,3.31,-10.31,-4.21,0,*40
1498792059.72,32890,15.69,73178.5,3.29,-10.35,-4.25,0,*41
1498792060.92,32891,15.69,73174.8,3.29,-10.57,-4.25,0,*44
1498792062.15,32892,15.69,73174.5,3.29,-10.67,-4.45,0,*42
1498792063.37,32893,15.69,73176.5,3.29,-10.79,-4.57,0,*4F
1498792064.6,32894,15.69,73174.8,3.29,-10.79,-4.57,0,*48
1498792065.85,32895,15.69,73172.3,3.31,-10.67,-4.57,0,*4F
1498792067.09,32896,15.69,73174.0,3.31,-10.63,-4.45,0,*4B
1498792068.34,32897,15.69,73174.8,3.33,-10.41,-4.09,0,*40
1498792069.55,32898,15.69,73172.0,3.33,-10.05,-3.83,0,*4A
1498792070.78,32899,15.69,73172.0,3.31,-9.93,-3.67,0,*74
1498792071.98,32900,15.69,73174.8,3.31,-9.67,-3.23,0,*7E
1498792073.23,32901,15.69,73172.8,3.33,-9.19,-2.67,0,*75
1498792074.45,32902,15.69,73178.8,3.31,-8.85,-2.35,0,*77
1498792075.7,32903,15.69,73172.3,3.33,-8.51,-1.79,0,*76
1498792076.96,32904,15.69,73172.0,3.31,-8.03,-1.35,0,*7C
1498792078.21,32905,15.69,73176.8,3.31,-7.61,-0.93,0,*4B
1498792079.43,32906,15.69,73174.5,3.31,-7.11,-0.41,0,*40
1498792080.64,32907,15.69,73168.0,3.33,-6.43,-0.07,0,*77
1498792081.88,32908,15.69,73160.5,3.33,-5.97,0.33,0,*68
1498792083.1,32909,15.69,73160.8,3.31,-5.43,0.51,0,*66
1498792084.35,32910,15.69,73156.5,3.33,-4.81,0.83,0,*6C
1498792085.57,32911,15.69,73154.0,3.33,-4.21,1.05,0,*58
1498792086.84,32912,15.69,73158.8,3.33,-3.63,1.09,0,*56
1498792088.08,32913,15.69,73156.8,3.33,-3.27,1.17,0,*58
1498792089.34,32914,15.69,73154.0,3.33,-2.67,1.33,0,*5C
1498792090.57,32915,15.69,73154.3,3.33,-2.39,1.43,0,*51
1498792091.83,32916,15.69,73154.0,3.33,-2.03,1.55,0,*5C
1498792093.09,32917,15.69,73154.8,3.33,-1.87,1.51,0,*56
1498792094.33,32918,15.69,73156.0,3.33,-1.63,1.63,0,*52
1498792095.55,32919,15.69,73154.8,3.31,-1.55,1.59,0,*5D
1498792096.81,32920,15.69,73154.8,3.33,-1.43,1.55,0,*5E
1498792098.08,32921,15.69,73156.0,3.33,-1.39,1.67,0,*53
1498792099.31,32922,15.69,73156.5,3.35,-1.39,1.71,0,*51
1498792100.54,32923,15.69,73156.5,3.35,-1.35,1.67,0,*5B
1498792101.77,32924,15.69,73156.8,3.37,-1.25,1.71,0,*58
1498792102.98,32925,15.69,73154.5,3.35,-1.29,1.71,0,*57
1498792104.21,32926,15.69,73152.8,3.37,-1.25,1.71,0,*5A
1498792105.45,32927,15.69,73154.0,3.37,-1.21,1.71,0,*5F
1498792106.68,32928,15.69,73158.8,3.35,-1.13,1.71,0,*53
1498792107.93,32929,15.69,73158.0,3.37,-1.09,1.67,0,*5C
1498792109.18,32930,15.69,73152.0,3.37,-0.89,1.71,0,*6A
1498792110.41,32931,15.69,73158.5,3.37,-0.77,1.67,0,*6D
1498792111.62,32932,15.69,73164.3,3.37,-0.73,1.79,0,*65
1498792112.82,32933,15.69,73162.3,3.35,-0.77,1.71,0,*6A
1498792114.05,32934,15.69,73152.5,3.37,-0.65,1.67,0,*6B
1498792115.27,32935,15.69,73152.8,3.37,-0.61,1.67,0,*6E